EN

Hourly Weather Lahi

Today, 25 July, Sunday

Time Temperature Precipitation Wind Pressure Humidity
00:00 +14°C° 0 mm 2 mps 743 mmHg 80%
01:00 +13°C° 0 mm 2 mps 743 mmHg 81%
02:00 +13°C° 0 mm 2 mps 743 mmHg 82%
03:00 +14°C° 0 mm 2 mps 743 mmHg 81%
04:00 +14°C° 0 mm 2 mps 743 mmHg 81%
05:00 +14°C° 0 mm 1 mps 744 mmHg 81%
06:00 +16°C° 0 mm 2 mps 744 mmHg 73%
07:00 +19°C° 0 mm 2 mps 744 mmHg 66%
08:00 +21°C° 0 mm 2 mps 744 mmHg 57%
09:00 +23°C° 0 mm 2 mps 744 mmHg 53%
10:00 +25°C° 0 mm 2 mps 745 mmHg 49%
11:00 +26°C° 0 mm 2 mps 745 mmHg 44%
12:00 +26°C° 0 mm 1 mps 745 mmHg 43%
13:00 +27°C° 0 mm 1 mps 745 mmHg 41%
14:00 +27°C° 0 mm 1 mps 744 mmHg 39%
15:00 +27°C° 0 mm 1 mps 744 mmHg 44%
16:00 +26°C° 0 mm 2 mps 745 mmHg 50%
17:00 +25°C° 0 mm 2 mps 745 mmHg 55%
18:00 +24°C° 0 mm 2 mps 745 mmHg 61%
19:00 +21°C° 0 mm 2 mps 745 mmHg 67%
20:00 +21°C° 0 mm 1 mps 745 mmHg 73%
21:00 +19°C° 0 mm 2 mps 745 mmHg 75%
22:00 +18°C° 0 mm 2 mps 745 mmHg 77%
23:00 +18°C° 0 mm 2 mps 746 mmHg 80%

Tomorrow, 26 July, Monday

Time Temperature Precipitation Wind Pressure Humidity
00:00 +18°C° 0 mm 2 mps 746 mmHg 80%
01:00 +17°C° 0 mm 2 mps 746 mmHg 80%
02:00 +17°C° 0 mm 2 mps 746 mmHg 80%
03:00 +18°C° 0 mm 1 mps 746 mmHg 82%
04:00 +18°C° 0 mm 1 mps 746 mmHg 84%
05:00 +16°C° 0 mm 1 mps 746 mmHg 85%
06:00 +20°C° 0 mm 1 mps 746 mmHg 78%
07:00 +21°C° 0 mm 2 mps 747 mmHg 70%
08:00 +24°C° 0 mm 2 mps 747 mmHg 63%
09:00 +25°C° 0 mm 2 mps 747 mmHg 57%
10:00 +27°C° 0 mm 2 mps 747 mmHg 51%
11:00 +28°C° 0 mm 2 mps 747 mmHg 45%
12:00 +28°C° 0 mm 2 mps 747 mmHg 44%
13:00 +28°C° 0 mm 2 mps 746 mmHg 43%
14:00 +28°C° 0 mm 2 mps 746 mmHg 43%
15:00 +27°C° 0 mm 2 mps 746 mmHg 48%
16:00 +26°C° 0 mm 2 mps 746 mmHg 53%
17:00 +25°C° 0 mm 2 mps 746 mmHg 58%
18:00 +24°C° 0 mm 2 mps 746 mmHg 60%
19:00 +24°C° 0 mm 2 mps 746 mmHg 61%
20:00 +23°C° 0 mm 1 mps 746 mmHg 63%
21:00 +21°C° 0 mm 2 mps 746 mmHg 68%
22:00 +20°C° 0 mm 2 mps 746 mmHg 72%
23:00 +19°C° 0 mm 2 mps 746 mmHg 76%

Day after tomorrow, 27 July, Tuesday

Time Temperature Precipitation Wind Pressure Humidity
00:00 +19°C° 0 mm 2 mps 746 mmHg 78%
01:00 +18°C° 0 mm 2 mps 746 mmHg 81%
02:00 +17°C° 0 mm 2 mps 746 mmHg 84%
03:00 +17°C° 0.1 mm 2 mps 746 mmHg 84%
04:00 +17°C° 0.1 mm 2 mps 746 mmHg 85%
05:00 +17°C° 0.1 mm 2 mps 746 mmHg 86%
06:00 +19°C° 0.1 mm 2 mps 746 mmHg 79%
07:00 +21°C° 0.1 mm 2 mps 746 mmHg 72%
08:00 +23°C° 0.1 mm 2 mps 746 mmHg 64%
09:00 +24°C° 0 mm 3 mps 746 mmHg 60%
10:00 +25°C° 0 mm 3 mps 746 mmHg 56%
11:00 +26°C° 0 mm 3 mps 746 mmHg 53%
12:00 +27°C° 0 mm 3 mps 746 mmHg 49%
13:00 +28°C° 0 mm 3 mps 745 mmHg 46%
14:00 +29°C° 0 mm 4 mps 745 mmHg 43%
15:00 +29°C° 0 mm 3 mps 745 mmHg 45%
16:00 +28°C° 0 mm 3 mps 744 mmHg 47%
17:00 +28°C° 0 mm 3 mps 744 mmHg 49%
18:00 +26°C° 0 mm 2 mps 744 mmHg 56%
19:00 +24°C° 0 mm 2 mps 744 mmHg 63%
20:00 +21°C° 0 mm 2 mps 743 mmHg 71%
21:00 +21°C° 0 mm 2 mps 743 mmHg 68%
22:00 +23°C° 0 mm 2 mps 743 mmHg 66%
23:00 +22°C° 0 mm 3 mps 743 mmHg 63%

28 July, Wednesday

Time Temperature Precipitation Wind Pressure Humidity
00:00 +21°C° 0.1 mm 3 mps 743 mmHg 68%
01:00 +20°C° 0.1 mm 3 mps 743 mmHg 73%
02:00 +19°C° 0.1 mm 2 mps 742 mmHg 78%
03:00 +19°C° 0.6 mm 3 mps 742 mmHg 83%
04:00 +18°C° 0.6 mm 3 mps 741 mmHg 87%
05:00 +17°C° 0.6 mm 3 mps 741 mmHg 91%
06:00 +18°C° 0.2 mm 4 mps 740 mmHg 90%
07:00 +18°C° 0.2 mm 4 mps 740 mmHg 89%
08:00 +18°C° 0.2 mm 4 mps 740 mmHg 88%
09:00 +19°C° 0.4 mm 4 mps 740 mmHg 89%
10:00 +19°C° 0.4 mm 5 mps 739 mmHg 90%
11:00 +19°C° 0.4 mm 5 mps 739 mmHg 90%
12:00 +21°C° 0.5 mm 4 mps 739 mmHg 88%
13:00 +22°C° 0.5 mm 4 mps 738 mmHg 85%
14:00 +23°C° 0.5 mm 4 mps 738 mmHg 82%
15:00 +23°C° 1 mm 4 mps 738 mmHg 82%
16:00 +23°C° 1 mm 4 mps 738 mmHg 81%
17:00 +23°C° 1 mm 4 mps 737 mmHg 81%
18:00 +22°C° 0.6 mm 3 mps 737 mmHg 86%
19:00 +21°C° 0.6 mm 3 mps 737 mmHg 90%
20:00 +20°C° 0.6 mm 2 mps 737 mmHg 95%
21:00 +19°C° 0 mm 2 mps 738 mmHg 95%
22:00 +18°C° 0 mm 2 mps 738 mmHg 96%
23:00 +18°C° 0 mm 2 mps 738 mmHg 96%

29 July, Thursday

Time Temperature Precipitation Wind Pressure Humidity
00:00 +18°C° 0 mm 2 mps 738 mmHg 97%
01:00 +17°C° 0 mm 2 mps 738 mmHg 97%
02:00 +17°C° 0 mm 2 mps 738 mmHg 97%
03:00 +17°C° 0 mm 2 mps 738 mmHg 97%
04:00 +17°C° 0 mm 2 mps 738 mmHg 97%
05:00 +17°C° 0 mm 2 mps 738 mmHg 97%
06:00 +18°C° 0 mm 2 mps 738 mmHg 90%
07:00 +20°C° 0 mm 3 mps 738 mmHg 84%
08:00 +22°C° 0 mm 3 mps 738 mmHg 77%
09:00 +24°C° 0 mm 3 mps 738 mmHg 69%
10:00 +26°C° 0 mm 4 mps 739 mmHg 61%
11:00 +27°C° 0 mm 4 mps 739 mmHg 53%
12:00 +28°C° 0 mm 4 mps 739 mmHg 49%
13:00 +29°C° 0 mm 4 mps 739 mmHg 46%
14:00 +29°C° 0 mm 4 mps 739 mmHg 42%
15:00 +28°C° 0 mm 4 mps 739 mmHg 47%
16:00 +28°C° 0 mm 3 mps 738 mmHg 52%
17:00 +27°C° 0 mm 3 mps 738 mmHg 56%
18:00 +25°C° 0 mm 2 mps 738 mmHg 61%
19:00 +24°C° 0 mm 2 mps 738 mmHg 65%
20:00 +23°C° 0 mm 1 mps 738 mmHg 69%
21:00 +22°C° 0 mm 1 mps 738 mmHg 72%
22:00 +21°C° 0 mm 1 mps 738 mmHg 74%
23:00 +21°C° 0 mm 1 mps 738 mmHg 77%

30 July, Friday

Time Temperature Precipitation Wind Pressure Humidity
00:00 +21°C° 0.1 mm 1 mps 739 mmHg 79%
01:00 +20°C° 0.1 mm 1 mps 739 mmHg 82%
02:00 +20°C° 0.1 mm 1 mps 739 mmHg 84%
03:00 +20°C° 0.2 mm 1 mps 739 mmHg 85%
04:00 +20°C° 0.2 mm 1 mps 739 mmHg 87%
05:00 +20°C° 0.2 mm 1 mps 739 mmHg 88%
06:00 +21°C° 0 mm 1 mps 739 mmHg 84%
07:00 +22°C° 0 mm 1 mps 739 mmHg 81%
08:00 +23°C° 0 mm 1 mps 739 mmHg 77%
09:00 +24°C° 0 mm 1 mps 739 mmHg 71%
10:00 +26°C° 0 mm 1 mps 739 mmHg 66%
11:00 +25°C° 0 mm 0 mps 740 mmHg 60%
12:00 +27°C° 0.2 mm 1 mps 739 mmHg 59%
13:00 +28°C° 0.2 mm 1 mps 739 mmHg 58%
14:00 +29°C° 0.2 mm 2 mps 739 mmHg 57%
15:00 +28°C° 0.4 mm 1 mps 739 mmHg 62%
16:00 +27°C° 0.4 mm 1 mps 739 mmHg 67%
17:00 +26°C° 0.4 mm 1 mps 738 mmHg 72%
18:00 +25°C° 0.5 mm 1 mps 738 mmHg 78%
19:00 +23°C° 0.5 mm 1 mps 738 mmHg 84%
20:00 +21°C° 0.5 mm 1 mps 738 mmHg 90%
21:00 +21°C° 0 mm 1 mps 738 mmHg 91%
22:00 +19°C° 0 mm 2 mps 738 mmHg 93%
23:00 +19°C° 0 mm 2 mps 738 mmHg 94%
Show more